FW4833 Weather Reports


time (UTC)temp
C
wind
direction
speed
KPH
gust
KPH
rain 1hr
cm
rain 24hr
cm
rain mn
cm
humidity
%
barometer
mb
20260502205530 31 72 11.3 19.3 0.00 0.00 0.00 16 1010.1
20260502205030 31 101 9.7 19.3 0.00 0.00 0.00 16 1010.2
20260502204530 31 101 8.0 17.7 0.00 0.00 0.00 13 1010.3
20260502204031 31 271 8.0 16.1 0.00 0.00 0.00 13 1010.1
20260502203529 31 339 6.4 16.1 0.00 0.00 0.00 13 1010.3
20260502203029 31 344 3.2 14.5 0.00 0.00 0.00 13 1010.3
20260502202528 31 273 4.8 19.3 0.00 0.00 0.00 12 1010.5
20260502202027 31 197 9.7 19.3 0.00 0.00 0.00 14 1010.6
20260502201527 31 160 6.4 17.7 0.00 0.00 0.00 15 1010.5
20260502201026 30 63 11.3 22.5 0.00 0.00 0.00 16 1010.5
20260502200528 31 71 12.9 22.5 0.00 0.00 0.00 17 1010.7
20260502200025 31 99 12.9 20.9 0.00 0.00 0.00 17 1010.7
20260502195523 31 137 3.2 19.3 0.00 0.00 0.00 17 1010.6
20260502195023 31 69 11.3 20.9 0.00 0.00 0.00 17 1010.8
20260502194522 31 60 12.9 22.5 0.00 0.00 0.00 19 1010.8
20260502194022 31 50 12.9 24.1 0.00 0.00 0.00 20 1010.8
20260502193522 30 115 8.0 22.5 0.00 0.00 0.00 20 1010.9
20260502193023 30 144 14.5 22.5 0.00 0.00 0.00 20 1011.1
20260502192521 31 132 12.9 22.5 0.00 0.00 0.00 21 1011.1
20260502192019 30 134 11.3 19.3 0.00 0.00 0.00 21 1011.2
20260502191518 30 111 11.3 27.4 0.00 0.00 0.00 21 1011.3
20260502191017 30 113 14.5 27.4 0.00 0.00 0.00 20 1011.4
20260502190517 30 121 11.3 27.4 0.00 0.00 0.00 21 1011.5
20260502190016 30 146 12.9 27.4 0.00 0.00 0.00 21 1011.6
20260502185515 30 141 14.5 25.7 0.00 0.00 0.00 21 1011.7
20260502185014 30 117 12.9 25.7 0.00 0.00 0.00 22 1011.7
20260502184525 30 136 12.9 25.7 0.00 0.00 0.00 22 1011.7
20260502184013 29 129 16.1 27.4 0.00 0.00 0.00 22 1011.8
20260502183515 30 162 16.1 27.4 0.00 0.00 0.00 22 1012.0
20260502183025 30 128 12.9 24.1 0.00 0.00 0.00 21 1012.1
20260502182511 30 126 12.9 22.5 0.00 0.00 0.00 24 1012.1
20260502182009 29 127 12.9 25.7 0.00 0.00 0.00 24 1012.2
20260502181508 29 82 14.5 32.2 0.00 0.00 0.00 22 1012.4
20260502181006 29 98 14.5 32.2 0.00 0.00 0.00 23 1012.4
20260502180505 29 88 14.5 24.1 0.00 0.00 0.00 23 1012.3
20260502164043 27 138 12.9 22.5 0.00 0.00 0.00 18 1012.7
20260502163542 27 127 14.5 22.5 0.00 0.00 0.00 19 1012.6
20260502163049 27 95 14.5 22.5 0.00 0.00 0.00 19 1012.7
20260502162540 27 108 14.5 29.0 0.00 0.00 0.00 19 1012.7
20260502162037 27 144 16.1 29.0 0.00 0.00 0.00 18 1012.6
20260502161537 27 94 12.9 25.7 0.00 0.00 0.00 19 1012.6
20260502161035 27 104 16.1 25.7 0.00 0.00 0.00 19 1012.5
20260502160535 27 114 11.3 20.9 0.00 0.00 0.00 19 1012.6
20260502152021 26 74 16.1 27.4 0.00 0.00 0.00 20 1012.2
20260502151521 26 110 11.3 24.1 0.00 0.00 0.00 20 1012.2
20260502151018 25 69 12.9 22.5 0.00 0.00 0.00 20 1012.1
20260502150518 25 76 9.7 25.7 0.00 0.00 0.00 20 1012.0
20260502130547 19 107 4.8 11.3 0.00 0.00 0.00 27 1010.7
20260502123542 17 104 1.6 6.4 0.00 0.00 0.00 28 1010.3
20260502123041 17 107 1.6 4.8 0.00 0.00 0.00 28 1010.3
20260502122540 17 104 1.6 6.4 0.00 0.00 0.00 29 1010.2
20260502122040 17 104 3.2 6.4 0.00 0.00 0.00 28 1010.2
20260502121547 17 104 1.6 6.4 0.00 0.00 0.00 27 1010.1
20260502121039 18 104 1.6 9.7 0.00 0.00 0.00 26 1010.0
20260502120540 19 104 3.2 9.7 0.00 0.00 0.00 26 1010.0
20260502115536 19 120 3.2 9.7 0.00 0.00 0.00 25 1009.9
20260502115036 20 120 3.2 6.4 0.00 0.00 0.00 25 1009.9
20260502114536 20 121 1.6 11.3 0.00 0.00 0.00 24 1009.9
20260502114036 20 121 4.8 12.9 0.00 0.00 0.00 24 1009.9
20260502113535 21 126 6.4 16.1 0.00 0.00 0.00 24 1009.9
20260502113036 21 119 9.7 16.1 0.00 0.00 0.00 24 1009.9
20260502112535 21 123 9.7 17.7 0.00 0.00 0.00 24 1009.8
20260502112035 20 129 9.7 17.7 0.00 0.00 0.00 25 1009.8
20260502111535 20 114 9.7 16.1 0.00 0.00 0.00 25 1009.8
20260502111036 20 112 3.2 11.3 0.00 0.00 0.00 24 1009.7
20260502110534 20 118 3.2 9.7 0.00 0.00 0.00 24 1009.7
20260502110034 20 115 3.2 9.7 0.00 0.00 0.00 24 1009.8
20260502105534 20 117 1.6 9.7 0.00 0.00 0.00 24 1009.8
20260502105033 20 116 4.8 9.7 0.00 0.00 0.00 24 1009.9
20260502104533 20 111 4.8 9.7 0.00 0.00 0.00 24 1009.9
20260502104033 19 101 4.8 9.7 0.00 0.00 0.00 25 1009.9
20260502103533 18 69 3.2 6.4 0.00 0.00 0.00 25 1009.8
20260502103038 18 27 3.2 4.8 0.00 0.00 0.00 24 1009.9
20260502102532 18 26 1.6 4.8 0.00 0.00 0.00 24 1009.8
20260502102032 18 26 1.6 4.8 0.00 0.00 0.00 24 1009.8
20260502101542 18 25 1.6 4.8 0.00 0.00 0.00 24 1009.7
20260502101030 18 24 1.6 4.8 0.00 0.00 0.00 25 1009.8
20260502100530 17 24 1.6 4.8 0.00 0.00 0.00 26 1009.8
20260502091023 18 22 0.0 3.2 0.00 0.00 0.00 25 1009.5
20260502090521 18 22 0.0 3.2 0.00 0.00 0.00 24 1009.5
20260502071504 22 13 0.0 3.2 0.00 0.00 0.00 16 1009.4
20260502071003 22 13 0.0 4.8 0.00 0.00 0.00 16 1009.3
20260502070502 23 13 1.6 4.8 0.00 0.00 0.00 16 1009.4
20260502070119 23 11 1.6 6.4 0.00 0.00 0.00 15 1009.3
20260502065558 23 11 3.2 8.0 0.00 0.00 0.00 15 1009.3
20260502065058 24 11 3.2 9.7 0.00 0.00 0.00 15 1009.3
20260502064559 24 5 4.8 9.7 0.00 0.00 0.00 14 1009.3
20260502064100 25 9 4.8 16.1 0.00 0.00 0.00 14 1009.3
20260502063558 25 335 8.0 16.1 0.00 0.00 0.00 14 1009.2
20260502063058 25 346 8.0 14.5 0.00 0.00 0.00 14 1009.1
20260502062558 25 360 8.0 14.5 0.00 0.00 0.00 14 1009.1
20260502062057 24 349 8.0 14.5 0.00 0.00 0.00 14 1009.0
20260502061557 23 325 6.4 14.5 0.00 0.00 0.00 14 1009.0
20260502061057 23 323 4.8 9.7 0.00 0.00 0.00 14 1008.9
20260502060559 23 343 4.8 9.7 0.00 0.00 0.00 14 1008.8
20260502060056 23 360 3.2 12.9 0.00 0.00 0.00 14 1008.7
20260502055557 23 17 4.8 14.5 0.00 0.00 0.00 14 1008.7
20260502055056 23 360 3.2 14.5 0.00 0.00 0.00 15 1008.8
20260502054556 22 275 0.0 3.2 0.00 0.00 0.00 15 1008.8
20260502054055 23 275 0.0 3.2 0.00 0.00 0.00 15 1008.9
20260502053559 23 275 0.0 4.8 0.00 0.00 0.00 15 1008.8
20260502053119 23 275 0.0 4.8 0.00 0.00 0.00 15 1008.7
20260502052555 24 275 1.6 4.8 0.00 0.00 0.00 15 1008.6
20260502052055 25 275 1.6 4.8 0.00 0.00 0.00 15 1008.6
20260502051606 25 275 1.6 8.0 0.00 0.00 0.00 14 1008.5
20260502051058 25 275 1.6 8.0 0.00 0.00 0.00 14 1008.4
20260502050556 25 280 3.2 6.4 0.00 0.00 0.00 14 1008.4
20260502050057 26 281 1.6 8.0 0.00 0.00 0.00 13 1008.4
20260502045554 26 282 4.8 16.1 0.00 0.00 0.00 13 1008.4
20260502045055 26 279 8.0 16.1 0.00 0.00 0.00 14 1008.3
20260502044554 25 270 6.4 14.5 0.00 0.00 0.00 16 1008.2
20260502044054 26 245 1.6 8.0 0.00 0.00 0.00 16 1008.2
20260502043552 26 252 4.8 14.5 0.00 0.00 0.00 16 1008.2
20260502043057 26 260 8.0 19.3 0.00 0.00 0.00 17 1008.3
20260502042551 26 272 11.3 19.3 0.00 0.00 0.00 17 1008.1
20260502042052 26 273 11.3 14.5 0.00 0.00 0.00 18 1008.0
20260502041614 26 218 1.6 9.7 0.00 0.00 0.00 17 1007.8
20260502041050 26 229 4.8 11.3 0.00 0.00 0.00 18 1007.9
20260502040549 26 213 6.4 11.3 0.00 0.00 0.00 18 1007.7
20260502040049 26 235 1.6 8.0 0.00 0.00 0.00 18 1007.7
20260502035549 26 242 3.2 8.0 0.00 0.00 0.00 18 1007.5
20260502035050 26 228 4.8 8.0 0.00 0.00 0.00 18 1007.4
20260502034549 26 239 3.2 11.3 0.00 0.00 0.00 18 1007.5
20260502034049 26 246 4.8 11.3 0.00 0.00 0.00 18 1007.3
20260502033547 26 243 4.8 11.3 0.00 0.00 0.00 17 1007.3
20260502033102 26 234 1.6 11.3 0.00 0.00 0.00 17 1007.2
20260502032547 27 234 4.8 11.3 0.00 0.00 0.00 17 1007.1
20260502032047 27 247 3.2 12.9 0.00 0.00 0.00 16 1007.0
20260502031548 27 229 4.8 12.9 0.00 0.00 0.00 15 1007.1
20260502031050 27 222 6.4 12.9 0.00 0.00 0.00 15 1007.0
20260502030546 27 223 6.4 16.1 0.00 0.00 0.00 15 1006.9
20260502030046 27 214 8.0 16.1 0.00 0.00 0.00 15 1006.9
20260502025546 27 258 9.7 16.1 0.00 0.00 0.00 15 1006.9
20260502025045 27 252 6.4 14.5 0.00 0.00 0.00 15 1006.9
20260502024545 27 257 3.2 11.3 0.00 0.00 0.00 16 1006.7
20260502024045 27 250 0.0 11.3 0.00 0.00 0.00 16 1006.6
20260502023545 28 250 3.2 11.3 0.00 0.00 0.00 16 1006.5
20260502023049 28 248 4.8 9.7 0.00 0.00 0.00 16 1006.5
20260502022545 28 202 4.8 16.1 0.00 0.00 0.00 16 1006.6
20260502022047 28 209 8.0 17.7 0.00 0.00 0.00 16 1006.4
20260502021544 28 201 11.3 17.7 0.00 0.00 0.00 16 1006.3
20260502021044 28 208 6.4 16.1 0.00 0.00 0.00 16 1006.5
20260502020544 28 198 6.4 20.9 0.00 0.00 0.00 17 1006.5
20260502020048 29 195 11.3 20.9 0.00 0.00 0.00 17 1006.3
20260502015543 29 223 12.9 19.3 0.00 0.00 0.00 16 1006.3
20260502015043 29 229 8.0 16.1 0.00 0.00 0.00 16 1006.3
20260502014543 29 204 9.7 16.1 0.00 0.00 0.00 16 1006.2
20260502014042 30 223 11.3 16.1 0.00 0.00 0.00 15 1006.2
20260502013542 30 188 6.4 14.5 0.00 0.00 0.00 15 1006.1
20260502013042 30 203 8.0 17.7 0.00 0.00 0.00 15 1006.1
20260502012542 30 193 9.7 20.9 0.00 0.00 0.00 15 1006.2
20260502012042 30 228 8.0 22.5 0.00 0.00 0.00 15 1006.1
20260502011544 30 242 12.9 22.5 0.00 0.00 0.00 15 1006.1
20260502011041 30 200 6.4 14.5 0.00 0.00 0.00 14 1006.1
20260502010540 30 230 4.8 20.9 0.00 0.00 0.00 14 1006.1
20260502010040 30 261 9.7 19.3 0.00 0.00 0.00 14 1006.1
20260502005539 30 195 9.7 25.7 0.00 0.00 0.00 14 1006.1
20260502005039 30 215 11.3 25.7 0.00 0.00 0.00 14 1006.1
20260502004539 30 165 6.4 20.9 0.00 0.00 0.00 15 1006.1
20260502004037 31 217 9.7 20.9 0.00 0.00 0.00 14 1006.2
20260502003538 31 234 9.7 22.5 0.00 0.00 0.00 13 1006.1
20260502003038 31 206 6.4 19.3 0.00 0.00 0.00 13 1006.1
20260502002537 31 213 4.8 9.7 0.00 0.00 0.00 13 1006.2
20260502002037 31 260 1.6 9.7 0.00 0.00 0.00 12 1006.2
20260502001537 31 265 3.2 12.9 0.00 0.00 0.00 12 1006.2
20260502001036 31 278 6.4 16.1 0.00 0.00 0.00 12 1006.2
20260502000535 31 249 9.7 16.1 0.00 0.00 0.00 12 1006.3
20260502000035 31 212 6.4 16.1 0.00 0.00 0.00 14 1006.3
20260501235534 30 190 0.0 9.7 0.00 0.00 0.00 14 1006.2
20260501235034 30 200 3.2 16.1 0.00 0.00 0.00 15 1006.3
20260501234534 31 188 8.0 16.1 0.00 0.00 0.00 14 1006.3
20260501234034 31 288 0.0 14.5 0.00 0.00 0.00 14 1006.4
20260501233535 31 205 1.6 9.7 0.00 0.00 0.00 15 1006.3
20260501233033 30 182 4.8 9.7 0.00 0.00 0.00 15 1006.3
20260501232534 30 207 1.6 6.4 0.00 0.00 0.00 16 1006.4
20260501232033 30 206 3.2 8.0 0.00 0.00 0.00 16 1006.5
20260501231549 31 207 3.2 12.9 0.00 0.00 0.00 15 1006.6
20260501231032 30 239 4.8 12.9 0.00 0.00 0.00 16 1006.6
20260501230533 30 198 3.2 8.0 0.00 0.00 0.00 16 1006.5
20260501230031 30 242 1.6 8.0 0.00 0.00 0.00 16 1006.7
20260501225531 30 261 0.0 16.1 0.00 0.00 0.00 16 1006.6
20260501225033 31 279 4.8 19.3 0.00 0.00 0.00 16 1006.8
20260501224528 31 268 6.4 19.3 0.00 0.00 0.00 16 1006.9
20260501224028 30 152 0.0 9.7 0.00 0.00 0.00 17 1007.1
20260501223528 30 206 0.0 9.7 0.00 0.00 0.00 17 1007.1
20260501223046 31 232 3.2 16.1 0.00 0.00 0.00 16 1007.2
20260501222527 31 253 4.8 16.1 0.00 0.00 0.00 16 1007.2
20260501222026 30 252 8.0 14.5 0.00 0.00 0.00 17 1007.3
20260501221527 30 215 3.2 14.5 0.00 0.00 0.00 17 1007.3
20260501221025 30 321 4.8 12.9 0.00 0.00 0.00 18 1007.3
20260501220524 29 194 3.2 14.5 0.00 0.00 0.00 19 1007.4
20260501220024 29 191 1.6 19.3 0.00 0.00 0.00 19 1007.5
20260501215524 30 256 6.4 19.3 0.00 0.00 0.00 17 1007.7
20260501215025 30 252 11.3 22.5 0.00 0.00 0.00 17 1007.6
20260501214523 30 248 0.0 14.5 0.00 0.00 0.00 18 1007.8
20260501214022 30 254 4.8 16.1 0.00 0.00 0.00 18 1007.9
20260501213522 30 263 6.4 17.7 0.00 0.00 0.00 18 1008.0
20260501213022 30 209 6.4 17.7 0.00 0.00 0.00 18 1008.0
20260501212522 30 272 4.8 14.5 0.00 0.00 0.00 19 1008.1
20260501212021 30 254 9.7 14.5 0.00 0.00 0.00 19 1008.2
20260501211521 29 206 0.0 17.7 0.00 0.00 0.00 19 1008.3
20260501211020 30 284 9.7 17.7 0.00 0.00 0.00 19 1008.4
20260501210518 30 215 8.0 14.5 0.00 0.00 0.00 20 1008.5
20260501210018 29 211 0.0 14.5 0.00 0.00 0.00 20 1008.7